Regional Weather Roundup
Issued by NWS

Home | Current Version | Previous Version | Text Only | Print | Product List | Glossary On
Versions: 1 2 3 4 5 6 7 8 9 10 11 12 13 14 15 16 17 18 19 20 21 22 23 24 25 26 27 28 29 30 31 32 33 34 35 36 37 38 39 40 41 42 43 44 45 46 47 48 49 50
283
ASCA42 TJSJ 111310
RWRPR
PUERTO RICO/U.S. VIRGIN ISLANDS HOURLY WEATHER ROUNDUP
NATIONAL WEATHER SERVICE SAN JUAN PR
900 AM AST THU FEB 11 2016

PRZ001-004-111400-
PUERTO RICO

CITY           SKY/WX    TMP DP  RH WIND       PRES   REMARKS
SAN JUAN LMM   MOSUNNY   79  70  73 E8        30.13R
AGUADILLA      MOSUNNY   77  66  69 E7        30.14R
CEIBA          LGT RAIN  77  72  83 SE3       30.15R
$$

PRZ006-007-111400-
U.S. VIRGIN ISLANDS

CITY           SKY/WX    TMP DP  RH WIND       PRES   REMARKS
CHARLOTTE AMA  MOSUNNY   81  70  69 E10       30.12R
CHRISTIANSTED  SUNNY     82  68  61 E14       30.12S
$$

HOURLY WEATHER ROUNDUP FOR THE NEWS MEDIA

CITY           SKY/WX    TMP DP  RH WIND       PRES   REMARKS
ORLANDO        SUNNY     45  28  51 N7        30.33R
NEW YORK       MOSUNNY   25   0  33 W16G30    29.90R WCI  12
NEWARK         MOSUNNY   23   2  40 W13G21    29.90R WCI  11
CHICAGO        PTCLDY     7  -2  66 W8        30.27R WCI  -6
HARTFORD       CLOUDY    26  15  63 W9        29.71R WCI  17
BOSTON         CLOUDY    26  14  60 W14G20    29.70R WCI  14
DALLAS         PTCLDY    46  33  60 S3        30.08R
PHILADELPHIA   PTCLDY    22   5  48 W20G26    29.99R WCI   7
LOS ANGELES    PTCLDY    58  35  42 E3        30.07S
WASHINGTON DC  FAIR      20   4  50 W9        30.09R WCI   9



USA.gov is the U.S. government's official web portal to all federal, state and local government web resources and services.